| time (UTC) | temp F | wind direction | speed MPH | gust MPH | rain 1hr in | rain 24hr in | rain mn in | humidity % | barometer mb |
| 20260504025517 | 57 | 0 | 0.0 | 0.0 | 0.00 | 0.00 | 0.00 | 74 | 1019.7 |
| 20260504025017 | 57 | 0 | 0.0 | 0.0 | 0.00 | 0.00 | 0.00 | 73 | 1019.6 |
| 20260504024517 | 57 | 0 | 0.0 | 0.0 | 0.00 | 0.00 | 0.00 | 73 | 1019.6 |
| 20260504024017 | 57 | 0 | 0.0 | 0.0 | 0.00 | 0.00 | 0.00 | 73 | 1019.5 |
| 20260504023517 | 57 | 0 | 0.0 | 0.0 | 0.00 | 0.00 | 0.00 | 72 | 1019.4 |
| 20260504023017 | 58 | 0 | 0.0 | 0.0 | 0.00 | 0.00 | 0.00 | 72 | 1019.4 |
| 20260504022517 | 58 | 0 | 0.0 | 0.0 | 0.00 | 0.00 | 0.00 | 71 | 1019.3 |
| 20260504022017 | 58 | 0 | 0.0 | 0.0 | 0.00 | 0.00 | 0.00 | 70 | 1019.3 |
| 20260504021516 | 58 | 0 | 0.0 | 0.0 | 0.00 | 0.00 | 0.00 | 70 | 1019.2 |
| 20260504021017 | 58 | 0 | 0.0 | 0.0 | 0.00 | 0.00 | 0.00 | 69 | 1019.2 |
| 20260504020517 | 59 | 0 | 0.0 | 0.0 | 0.00 | 0.00 | 0.00 | 68 | 1019.2 |
| 20260504020017 | 59 | 0 | 0.0 | 0.0 | 0.00 | 0.00 | 0.00 | 68 | 1019.2 |
| 20260504015517 | 59 | 0 | 0.0 | 0.0 | 0.00 | 0.00 | 0.00 | 67 | 1019.1 |
| 20260504015017 | 59 | 0 | 0.0 | 0.0 | 0.00 | 0.00 | 0.00 | 67 | 1019.1 |
| 20260504014517 | 59 | 0 | 0.0 | 0.0 | 0.00 | 0.00 | 0.00 | 66 | 1019.1 |
| 20260504014017 | 59 | 0 | 0.0 | 0.0 | 0.00 | 0.00 | 0.00 | 66 | 1019.2 |
| 20260504013522 | 60 | 0 | 0.0 | 0.0 | 0.00 | 0.00 | 0.00 | 64 | 1019.0 |
| 20260504013018 | 61 | 0 | 0.0 | 0.0 | 0.00 | 0.00 | 0.00 | 63 | 1018.9 |
| 20260504012517 | 61 | 0 | 0.0 | 0.0 | 0.00 | 0.00 | 0.00 | 62 | 1018.8 |
| 20260504012017 | 61 | 0 | 0.0 | 0.0 | 0.00 | 0.00 | 0.00 | 63 | 1018.7 |
| 20260504011517 | 61 | 0 | 0.0 | 0.0 | 0.00 | 0.00 | 0.00 | 61 | 1018.8 |
| 20260504011017 | 62 | 0 | 0.0 | 0.0 | 0.00 | 0.00 | 0.00 | 60 | 1018.8 |
| 20260504010517 | 62 | 0 | 0.0 | 0.0 | 0.00 | 0.00 | 0.00 | 60 | 1018.8 |
| 20260504010017 | 62 | 0 | 0.0 | 0.0 | 0.00 | 0.00 | 0.00 | 57 | 1018.6 |
| 20260504005517 | 63 | 0 | 0.0 | 0.0 | 0.00 | 0.00 | 0.00 | 57 | 1018.6 |
| 20260504005017 | 63 | 0 | 0.0 | 0.0 | 0.00 | 0.00 | 0.00 | 56 | 1018.5 |
| 20260504004517 | 64 | 0 | 0.0 | 0.0 | 0.00 | 0.00 | 0.00 | 54 | 1018.5 |
| 20260504004017 | 64 | 0 | 0.0 | 0.0 | 0.00 | 0.00 | 0.00 | 53 | 1018.4 |
| 20260504003517 | 65 | 0 | 0.0 | 0.0 | 0.00 | 0.00 | 0.00 | 54 | 1018.4 |
| 20260504003017 | 65 | 0 | 0.0 | 0.0 | 0.00 | 0.00 | 0.00 | 51 | 1018.3 |
| 20260504002517 | 66 | 0 | 0.0 | 0.0 | 0.00 | 0.00 | 0.00 | 50 | 1018.3 |
| 20260504002017 | 66 | 0 | 0.0 | 0.0 | 0.00 | 0.00 | 0.00 | 49 | 1018.3 |
| 20260504001517 | 66 | 0 | 0.0 | 0.0 | 0.00 | 0.00 | 0.00 | 49 | 1018.3 |
| 20260504001017 | 66 | 0 | 0.0 | 0.0 | 0.00 | 0.00 | 0.00 | 47 | 1018.3 |
| 20260504000517 | 67 | 0 | 0.0 | 0.0 | 0.00 | 0.00 | 0.00 | 48 | 1018.3 |
| 20260504000017 | 67 | 0 | 0.0 | 0.0 | 0.00 | 0.00 | 0.00 | 46 | 1018.3 |
| 20260503235517 | 67 | 0 | 0.0 | 0.0 | 0.00 | 0.00 | 0.00 | 45 | 1018.3 |
| 20260503235016 | 68 | 0 | 0.0 | 0.0 | 0.00 | 0.00 | 0.00 | 47 | 1018.3 |
| 20260503234517 | 68 | 0 | 0.0 | 0.0 | 0.00 | 0.00 | 0.00 | 45 | 1018.2 |
| 20260503234017 | 68 | 0 | 0.0 | 0.0 | 0.00 | 0.00 | 0.00 | 43 | 1018.2 |
| 20260503233517 | 69 | 0 | 0.0 | 0.0 | 0.00 | 0.00 | 0.00 | 43 | 1018.2 |
| 20260503233017 | 69 | 0 | 0.0 | 0.0 | 0.00 | 0.00 | 0.00 | 42 | 1018.2 |
| 20260503232517 | 69 | 0 | 0.0 | 0.0 | 0.00 | 0.00 | 0.00 | 41 | 1018.1 |
| 20260503232016 | 69 | 0 | 0.0 | 0.0 | 0.00 | 0.00 | 0.00 | 40 | 1018.2 |
| 20260503231517 | 69 | 0 | 0.0 | 0.0 | 0.00 | 0.00 | 0.00 | 39 | 1018.2 |
| 20260503231017 | 69 | 325 | 0.0 | 5.0 | 0.00 | 0.00 | 0.00 | 39 | 1018.3 |
| 20260503230517 | 70 | 330 | 0.0 | 3.0 | 0.00 | 0.00 | 0.00 | 39 | 1018.3 |
| 20260503230017 | 70 | 332 | 2.0 | 6.0 | 0.00 | 0.00 | 0.00 | 37 | 1018.3 |
| 20260503225517 | 71 | 18 | 0.0 | 6.0 | 0.00 | 0.00 | 0.00 | 37 | 1018.3 |
| 20260503225017 | 71 | 319 | 2.0 | 6.0 | 0.00 | 0.00 | 0.00 | 35 | 1018.3 |
| 20260503224517 | 72 | 313 | 0.0 | 5.0 | 0.00 | 0.00 | 0.00 | 34 | 1018.4 |
| 20260503224017 | 72 | 330 | 1.0 | 5.0 | 0.00 | 0.00 | 0.00 | 34 | 1018.5 |
| 20260503223517 | 72 | 268 | 0.0 | 5.0 | 0.00 | 0.00 | 0.00 | 36 | 1018.4 |
| 20260503223017 | 72 | 270 | 0.0 | 5.0 | 0.00 | 0.00 | 0.00 | 35 | 1018.4 |
| 20260503222517 | 72 | 284 | 4.0 | 5.0 | 0.00 | 0.00 | 0.00 | 37 | 1018.5 |
| 20260503222017 | 72 | 339 | 0.0 | 6.0 | 0.00 | 0.00 | 0.00 | 37 | 1018.5 |
| 20260503221518 | 72 | 339 | 2.0 | 9.0 | 0.00 | 0.00 | 0.00 | 35 | 1018.6 |
| 20260503221017 | 73 | 309 | 0.0 | 6.0 | 0.00 | 0.00 | 0.00 | 37 | 1018.6 |
| 20260503220517 | 73 | 16 | 3.0 | 5.0 | 0.00 | 0.00 | 0.00 | 34 | 1018.6 |
| 20260503220017 | 73 | 257 | 0.0 | 9.0 | 0.00 | 0.00 | 0.00 | 33 | 1018.7 |
| 20260503215518 | 73 | 330 | 0.0 | 4.0 | 0.00 | 0.00 | 0.00 | 34 | 1018.6 |
| 20260503215017 | 73 | 352 | 4.0 | 6.0 | 0.00 | 0.00 | 0.00 | 34 | 1018.7 |
| 20260503214517 | 73 | 311 | 5.0 | 9.0 | 0.00 | 0.00 | 0.00 | 32 | 1018.8 |
| 20260503214017 | 73 | 332 | 2.0 | 9.0 | 0.00 | 0.00 | 0.00 | 33 | 1018.8 |
| 20260503213517 | 73 | 328 | 5.0 | 8.0 | 0.00 | 0.00 | 0.00 | 34 | 1018.8 |
| 20260503213017 | 74 | 335 | 5.0 | 8.0 | 0.00 | 0.00 | 0.00 | 33 | 1019.0 |
| 20260503212517 | 74 | 179 | 2.0 | 6.0 | 0.00 | 0.00 | 0.00 | 35 | 1019.0 |
| 20260503212017 | 73 | 277 | 2.0 | 6.0 | 0.00 | 0.00 | 0.00 | 35 | 1019.0 |
| 20260503211517 | 73 | 356 | 1.0 | 6.0 | 0.00 | 0.00 | 0.00 | 35 | 1019.1 |
| 20260503211017 | 73 | 347 | 5.0 | 6.0 | 0.00 | 0.00 | 0.00 | 35 | 1019.3 |
| 20260503210518 | 73 | 347 | 4.0 | 6.0 | 0.00 | 0.00 | 0.00 | 34 | 1019.3 |
| 20260503210017 | 73 | 8 | 2.0 | 9.0 | 0.00 | 0.00 | 0.00 | 33 | 1019.4 |
| 20260503205517 | 73 | 292 | 7.0 | 5.0 | 0.00 | 0.00 | 0.00 | 35 | 1019.3 |
| 20260503205017 | 72 | 251 | 3.0 | 9.0 | 0.00 | 0.00 | 0.00 | 36 | 1019.4 |
| 20260503204517 | 72 | 3 | 1.0 | 10.0 | 0.00 | 0.00 | 0.00 | 36 | 1019.5 |
| 20260503204017 | 72 | 329 | 2.0 | 8.0 | 0.00 | 0.00 | 0.00 | 36 | 1019.7 |
| 20260503203517 | 72 | 326 | 4.0 | 11.0 | 0.00 | 0.00 | 0.00 | 36 | 1019.7 |
| 20260503203018 | 72 | 145 | 2.0 | 4.0 | 0.00 | 0.00 | 0.00 | 36 | 1019.8 |
| 20260503202517 | 71 | 302 | 4.0 | 9.0 | 0.00 | 0.00 | 0.00 | 36 | 1020.0 |
| 20260503202017 | 71 | 7 | 5.0 | 9.0 | 0.00 | 0.00 | 0.00 | 37 | 1020.0 |
| 20260503201517 | 71 | 350 | 4.0 | 11.0 | 0.00 | 0.00 | 0.00 | 37 | 1020.1 |
| 20260503201018 | 71 | 8 | 3.0 | 8.0 | 0.00 | 0.00 | 0.00 | 37 | 1020.2 |
| 20260503200517 | 71 | 319 | 3.0 | 8.0 | 0.00 | 0.00 | 0.00 | 38 | 1020.3 |
| 20260503200017 | 71 | 58 | 5.0 | 10.0 | 0.00 | 0.00 | 0.00 | 39 | 1020.3 |
| 20260503195517 | 71 | 357 | 5.0 | 9.0 | 0.00 | 0.00 | 0.00 | 39 | 1020.4 |
| 20260503195017 | 71 | 6 | 4.0 | 10.0 | 0.00 | 0.00 | 0.00 | 39 | 1020.5 |
| 20260503194517 | 70 | 8 | 2.0 | 6.0 | 0.00 | 0.00 | 0.00 | 39 | 1020.6 |
| 20260503194017 | 70 | 295 | 1.0 | 5.0 | 0.00 | 0.00 | 0.00 | 39 | 1020.8 |
| 20260503193517 | 70 | 346 | 0.0 | 5.0 | 0.00 | 0.00 | 0.00 | 40 | 1020.9 |
| 20260503193017 | 70 | 360 | 2.0 | 7.0 | 0.00 | 0.00 | 0.00 | 41 | 1021.0 |
| 20260503192517 | 70 | 89 | 2.0 | 8.0 | 0.00 | 0.00 | 0.00 | 41 | 1020.9 |
| 20260503192017 | 69 | 343 | 7.0 | 8.0 | 0.00 | 0.00 | 0.00 | 40 | 1021.0 |
| 20260503191517 | 69 | 298 | 2.0 | 6.0 | 0.00 | 0.00 | 0.00 | 41 | 1021.1 |
| 20260503191017 | 69 | 85 | 2.0 | 5.0 | 0.00 | 0.00 | 0.00 | 42 | 1021.3 |
| 20260503190517 | 69 | 4 | 3.0 | 6.0 | 0.00 | 0.00 | 0.00 | 41 | 1021.3 |
| 20260503190018 | 69 | 109 | 3.0 | 5.0 | 0.00 | 0.00 | 0.00 | 41 | 1021.5 |
| 20260503185517 | 69 | 356 | 3.0 | 10.0 | 0.00 | 0.00 | 0.00 | 40 | 1021.5 |
| 20260503185017 | 69 | 3 | 8.0 | 9.0 | 0.00 | 0.00 | 0.00 | 39 | 1021.8 |
| 20260503184517 | 68 | 352 | 3.0 | 12.0 | 0.00 | 0.00 | 0.00 | 39 | 1021.8 |
| 20260503184017 | 68 | 360 | 4.0 | 9.0 | 0.00 | 0.00 | 0.00 | 38 | 1021.9 |
| 20260503183518 | 68 | 301 | 8.0 | 7.0 | 0.00 | 0.00 | 0.00 | 38 | 1021.9 |
| 20260503183017 | 68 | 42 | 2.0 | 13.0 | 0.00 | 0.00 | 0.00 | 39 | 1022.0 |
| 20260503182517 | 68 | 3 | 4.0 | 10.0 | 0.00 | 0.00 | 0.00 | 38 | 1022.1 |
| 20260503182017 | 68 | 335 | 2.0 | 8.0 | 0.00 | 0.00 | 0.00 | 40 | 1022.2 |
| 20260503181517 | 68 | 92 | 2.0 | 11.0 | 0.00 | 0.00 | 0.00 | 38 | 1022.1 |
| 20260503181018 | 68 | 328 | 3.0 | 11.0 | 0.00 | 0.00 | 0.00 | 40 | 1022.2 |
| 20260503180517 | 68 | 340 | 9.0 | 11.0 | 0.00 | 0.00 | 0.00 | 41 | 1022.3 |
| 20260503180017 | 67 | 75 | 2.0 | 5.0 | 0.00 | 0.00 | 0.00 | 42 | 1022.3 |
| 20260503175517 | 67 | 319 | 2.0 | 9.0 | 0.00 | 0.00 | 0.00 | 41 | 1022.4 |
| 20260503175017 | 68 | 160 | 6.0 | 6.0 | 0.00 | 0.00 | 0.00 | 40 | 1022.4 |
| 20260503174517 | 67 | 25 | 2.0 | 7.0 | 0.00 | 0.00 | 0.00 | 39 | 1022.5 |
| 20260503174017 | 68 | 353 | 4.0 | 9.0 | 0.00 | 0.00 | 0.00 | 41 | 1022.5 |
| 20260503173518 | 67 | 24 | 1.0 | 8.0 | 0.00 | 0.00 | 0.00 | 41 | 1022.5 |
| 20260503173017 | 67 | 359 | 2.0 | 9.0 | 0.00 | 0.00 | 0.00 | 40 | 1022.5 |
| 20260503172517 | 67 | 212 | 6.0 | 8.0 | 0.00 | 0.00 | 0.00 | 42 | 1022.6 |
| 20260503172017 | 66 | 347 | 5.0 | 8.0 | 0.00 | 0.00 | 0.00 | 41 | 1022.6 |
| 20260503171517 | 66 | 48 | 2.0 | 4.0 | 0.00 | 0.00 | 0.00 | 42 | 1022.7 |
| 20260503171017 | 66 | 295 | 3.0 | 7.0 | 0.00 | 0.00 | 0.00 | 43 | 1022.8 |
| 20260503170518 | 66 | 309 | 2.0 | 7.0 | 0.00 | 0.00 | 0.00 | 40 | 1022.9 |
| 20260503150517 | 61 | 17 | 2.0 | 6.0 | 0.00 | 0.00 | 0.00 | 59 | 1023.3 |
| 20260503131017 | 53 | 56 | 0.0 | 6.0 | 0.00 | 0.00 | 0.00 | 83 | 1022.9 |
| 20260503130517 | 52 | 134 | 0.0 | 6.0 | 0.00 | 0.00 | 0.00 | 85 | 1023.0 |
| 20260503110517 | 47 | 0 | 0.0 | 0.0 | 0.00 | 0.00 | 0.00 | 90 | 1021.7 |
| 20260503081517 | 53 | 0 | 0.0 | 0.0 | 0.00 | 0.00 | 0.00 | 73 | 1020.5 |
| 20260503081018 | 53 | 0 | 0.0 | 0.0 | 0.00 | 0.00 | 0.00 | 72 | 1020.5 |
| 20260503080522 | 54 | 0 | 0.0 | 0.0 | 0.00 | 0.00 | 0.00 | 71 | 1020.5 |
| 20260503072518 | 55 | 0 | 0.0 | 0.0 | 0.00 | 0.00 | 0.00 | 67 | 1020.2 |
| 20260503072017 | 55 | 0 | 0.0 | 0.0 | 0.00 | 0.00 | 0.00 | 66 | 1020.2 |
| 20260503071517 | 55 | 134 | 0.0 | 3.0 | 0.00 | 0.00 | 0.00 | 66 | 1020.1 |
| 20260503071017 | 55 | 158 | 0.0 | 2.0 | 0.00 | 0.00 | 0.00 | 66 | 1020.1 |
| 20260503070517 | 56 | 72 | 0.0 | 4.0 | 0.00 | 0.00 | 0.00 | 65 | 1020.1 |
| 20260503055017 | 58 | 32 | 6.0 | 7.0 | 0.00 | 0.00 | 0.00 | 62 | 1019.9 |
| 20260503054517 | 58 | 329 | 1.0 | 10.0 | 0.00 | 0.00 | 0.00 | 61 | 1019.9 |
| 20260503054017 | 58 | 315 | 1.0 | 7.0 | 0.00 | 0.00 | 0.00 | 61 | 1019.8 |
| 20260503053518 | 58 | 72 | 2.0 | 6.0 | 0.00 | 0.00 | 0.00 | 62 | 1019.8 |
| 20260503053017 | 57 | 332 | 0.0 | 11.0 | 0.00 | 0.00 | 0.00 | 62 | 1019.8 |
| 20260503052517 | 56 | 18 | 0.0 | 10.0 | 0.00 | 0.00 | 0.00 | 65 | 1019.7 |
| 20260503052017 | 55 | 347 | 3.0 | 13.0 | 0.00 | 0.00 | 0.00 | 67 | 1019.7 |
| 20260503051517 | 54 | 35 | 4.0 | 7.0 | 0.00 | 0.00 | 0.00 | 72 | 1019.6 |
| 20260503051018 | 54 | 0 | 0.0 | 0.0 | 0.00 | 0.00 | 0.00 | 73 | 1019.5 |
| 20260503050518 | 54 | 0 | 0.0 | 0.0 | 0.00 | 0.00 | 0.00 | 72 | 1019.3 |
| 20260503050017 | 55 | 0 | 0.0 | 0.0 | 0.00 | 0.00 | 0.00 | 72 | 1019.3 |
| 20260503045518 | 55 | 0 | 0.0 | 0.0 | 0.00 | 0.00 | 0.00 | 72 | 1019.2 |
| 20260503045017 | 55 | 0 | 0.0 | 0.0 | 0.00 | 0.00 | 0.00 | 72 | 1019.1 |
| 20260503044517 | 55 | 0 | 0.0 | 0.0 | 0.00 | 0.00 | 0.00 | 72 | 1019.1 |
| 20260503044017 | 55 | 0 | 0.0 | 0.0 | 0.00 | 0.00 | 0.00 | 72 | 1019.0 |
| 20260503043517 | 54 | 0 | 0.0 | 0.0 | 0.00 | 0.00 | 0.00 | 71 | 1019.0 |
| 20260503043017 | 54 | 0 | 0.0 | 0.0 | 0.00 | 0.00 | 0.00 | 71 | 1019.0 |
| 20260503042517 | 54 | 0 | 0.0 | 0.0 | 0.00 | 0.00 | 0.00 | 71 | 1019.0 |
| 20260503042017 | 55 | 0 | 0.0 | 0.0 | 0.00 | 0.00 | 0.00 | 71 | 1019.0 |
| 20260503041517 | 55 | 0 | 0.0 | 0.0 | 0.00 | 0.00 | 0.00 | 71 | 1019.0 |
| 20260503041018 | 55 | 0 | 0.0 | 0.0 | 0.00 | 0.00 | 0.00 | 71 | 1019.0 |
| 20260503040517 | 55 | 0 | 0.0 | 0.0 | 0.00 | 0.00 | 0.00 | 71 | 1018.8 |
| 20260503040017 | 55 | 0 | 0.0 | 0.0 | 0.00 | 0.00 | 0.00 | 71 | 1018.8 |
| 20260503035517 | 55 | 0 | 0.0 | 0.0 | 0.00 | 0.00 | 0.00 | 71 | 1018.8 |
| 20260503035017 | 55 | 0 | 0.0 | 0.0 | 0.00 | 0.00 | 0.00 | 70 | 1018.8 |
| 20260503034517 | 55 | 0 | 0.0 | 0.0 | 0.00 | 0.00 | 0.00 | 70 | 1018.7 |
| 20260503034017 | 55 | 0 | 0.0 | 0.0 | 0.00 | 0.00 | 0.00 | 70 | 1018.7 |
| 20260503033517 | 55 | 0 | 0.0 | 0.0 | 0.00 | 0.00 | 0.00 | 69 | 1018.7 |
| 20260503033018 | 55 | 0 | 0.0 | 0.0 | 0.00 | 0.00 | 0.00 | 69 | 1018.7 |
| 20260503032517 | 56 | 0 | 0.0 | 0.0 | 0.00 | 0.00 | 0.00 | 70 | 1018.7 |
| 20260503032017 | 56 | 0 | 0.0 | 0.0 | 0.00 | 0.00 | 0.00 | 69 | 1018.7 |
| 20260503031518 | 56 | 0 | 0.0 | 0.0 | 0.00 | 0.00 | 0.00 | 69 | 1018.7 |
| 20260503031017 | 56 | 0 | 0.0 | 0.0 | 0.00 | 0.00 | 0.00 | 69 | 1018.6 |
| 20260503030517 | 56 | 0 | 0.0 | 0.0 | 0.00 | 0.00 | 0.00 | 68 | 1018.6 |
| 20260503030017 | 56 | 0 | 0.0 | 0.0 | 0.00 | 0.00 | 0.00 | 67 | 1018.6 |